This is the latest recevied weather packets stored in our database for station/object WX4ET. If no packets are shown the sender has not sent any weather packets the latest 10 day(s).
| Time | Temp. | Humidity | Pressure | Rain* | Wind** | Luminosity | Snow |
|---|---|---|---|---|---|---|---|
| 1777429468 | 18.33° C | 94% | 1011.6 hPa | 0 mm | - | 0 W/m² | - |
| 1777429164 | 18.89° C | 94% | 1011.4 hPa | 0 mm | - | 0 W/m² | - |
| 1777428860 | 18.89° C | 94% | 1011.5 hPa | 0 mm | - | 0 W/m² | - |
| 1777428557 | 18.89° C | 94% | 1011.8 hPa | 0 mm | - | 0 W/m² | - |
| 1777428253 | 18.33° C | 94% | 1011.8 hPa | 0 mm | - | 0 W/m² | - |
| 1777427947 | 18.89° C | 94% | 1011.9 hPa | 0 mm | - | 0 W/m² | - |
| 1777427644 | 18.89° C | 93% | 1011.9 hPa | 0 mm | - | 0 W/m² | - |
| 1777427341 | 18.89° C | 93% | 1011.9 hPa | 0 mm | - | 0 W/m² | - |
| 1777427038 | 18.89° C | 93% | 1012 hPa | 0 mm | - | 0 W/m² | - |
| 1777426735 | 18.89° C | 92% | 1012 hPa | 0 mm | - | 0 W/m² | - |
| 1777426432 | 18.89° C | 92% | 1012.2 hPa | 0 mm | - | 0 W/m² | - |
| 1777426128 | 18.89° C | 92% | 1012.3 hPa | 0 mm | - | 0 W/m² | - |
| 1777425822 | 18.89° C | 92% | 1012.4 hPa | 0 mm | - | 0 W/m² | - |
| 1777425517 | 18.89° C | 91% | 1012.3 hPa | 0 mm | - | 0 W/m² | - |
| 1777425212 | 19.44° C | 91% | 1012.2 hPa | 0 mm | - | 0 W/m² | - |
| 1777424911 | 19.44° C | 89% | 1012 hPa | 0 mm | - | 0 W/m² | - |
| 1777424606 | 20° C | 89% | 1011.9 hPa | 0 mm | - | 0 W/m² | - |
| 1777424301 | 20° C | 87% | 1011.9 hPa | 0 mm | - | 0 W/m² | - |
| 1777423997 | 20.56° C | 86% | 1011.7 hPa | 0 mm | - | 0 W/m² | - |
| 1777423694 | 20° C | 86% | 1011.5 hPa | 0 mm | - | 0 W/m² | - |
| 1777423390 | 20° C | 87% | 1011.2 hPa | 0 mm | - | 0 W/m² | - |
| 1777423085 | 20° C | 87% | 1011.3 hPa | 0 mm | - | 0 W/m² | - |
| 1777422780 | 20.56° C | 86% | 1011.3 hPa | 0 mm | - | 0 W/m² | - |
| 1777422476 | 20.56° C | 85% | 1011.1 hPa | 0 mm | - | 0 W/m² | - |
| 1777422171 | 20.56° C | 85% | 1011.1 hPa | 0 mm | - | 0 W/m² | - |
* Rain latest hour (hover to see other rain measurements)
** Current wind speed in m/s (hover to see current wind gust speed)